Weather History for Pendleton, OR

Change the Weather History Date:

Sunday, July 21, 2013

  Actual Average Record
Temperature  
Mean Temperature 76 °F 74 °F  
Max Temperature 97 °F 90 °F 114 °F (1905)
Min Temperature 55 °F 58 °F 42 °F (1934)
Degree Days  
Heating Degree Days 0 0  
Month to date heating degree days 0 7  
Since 1 June heating degree days 80 90  
Since 1 July heating degree days 0 7  
Cooling Degree Days 11 9  
Month to date cooling degree days 225 152  
Year to date cooling degree days 351 254  
Since 1 June cooling degree days 320 231  
Growing Degree Days 26 (Base 50)    
Moisture  
Dew Point 35 °F    
Average Humidity 31    
Maximum Humidity 51    
Minimum Humidity 10    
Precipitation  
Precipitation 0.00 in 0.01 in 0.25 in (1912)
Month to date precipitation 0.06 0.24  
Year to date precipitation 4.97 7.63  
Snow  
Snow 0.00 in 0.00 in 0.00 in (2002)
Month to date snowfall 0.0 0.0  
Year to date snowfall 0.2 7.7  
Since 1 July snowfall 0.0 0.0  
Snow Depth 0.00 in    
Sea Level Pressure  
Sea Level Pressure 29.76 in    
Wind  
Wind Speed 9 mph (WSW)    
Max Wind Speed 20 mph    
Max Gust Speed 25 mph    
Visibility 10 miles    
Events      
T = Trace of Precipitation, MM = Missing Value Source: NWS Daily Summary

Daily Weather History Graph

Daily Weather History Graph

Search for Another Location

Airport:

Trip Planner

Search our weather history database for the weather conditions in past years. The results will help you decide how hot, cold, wet, or windy it might be!

Date:

Astronomy

Jul. 21, 2013 Rise Set
Actual Time 5:26 AM PDT 8:36 PM PDT
Civil Twilight 4:50 AM PDT 9:11 PM PDT
Nautical Twilight 4:04 AM PDT 9:57 PM PDT
Astronomical Twilight 3:07 AM PDT 10:54 PM PDT
Moon 7:35 PM PDT (7/21) 4:19 AM PDT (7/21)
Length of Visible Light 16h 20m
Length of Day
15h 09m
Waxing Gibbous, 99% of the Moon is Illuminated
Jul 21
Waxing Gibbous
Jul 22
Full
Jul 29
Last Quarter
Aug 6
New
Aug 14
First Quarter

Hourly Weather History & Observations

Time (PDT) Temp. Dew Point Humidity Pressure Visibility Wind Dir Wind Speed Gust Speed Precip Events Conditions
12:53 AM 66.9 °F 36.0 °F 32% 29.79 in 10.0 mi ESE 4.6 mph - N/A   Clear
1:53 AM 62.1 °F 35.1 °F 37% 29.79 in 10.0 mi ESE 6.9 mph - N/A   Clear
2:53 AM 66.0 °F 37.9 °F 36% 29.78 in 10.0 mi ESE 4.6 mph - N/A   Clear
3:53 AM 57.9 °F 37.0 °F 46% 29.79 in 10.0 mi ESE 6.9 mph - N/A   Clear
4:53 AM 60.1 °F 34.0 °F 38% 29.79 in 10.0 mi SSE 8.1 mph - N/A   Clear
5:53 AM 55.9 °F 37.0 °F 49% 29.81 in 10.0 mi ESE 8.1 mph - N/A   Clear
6:53 AM 64.0 °F 37.9 °F 38% 29.81 in 10.0 mi ESE 6.9 mph - N/A   Clear
7:53 AM 70.0 °F 35.1 °F 28% 29.82 in 10.0 mi SSE 6.9 mph - N/A   Clear
8:53 AM 75.9 °F 34.0 °F 22% 29.82 in 10.0 mi SE 4.6 mph - N/A   Clear
9:53 AM 81.0 °F 28.0 °F 14% 29.81 in 10.0 mi Variable 5.8 mph - N/A   Clear
10:53 AM 84.9 °F 28.9 °F 13% 29.80 in 10.0 mi NW 6.9 mph 18.4 mph N/A   Clear
11:53 AM 89.1 °F 28.9 °F 12% 29.78 in 10.0 mi WNW 8.1 mph - N/A   Clear
12:53 PM 91.9 °F 30.0 °F 11% 29.76 in 10.0 mi West 13.8 mph 20.7 mph N/A   Clear
1:53 PM 95.0 °F 32.0 °F 11% 29.75 in 10.0 mi West 16.1 mph 20.7 mph N/A   Clear
2:53 PM 95.0 °F 35.1 °F 12% 29.74 in 10.0 mi WNW 9.2 mph 20.7 mph N/A   Clear
3:53 PM 95.0 °F 37.0 °F 13% 29.74 in 10.0 mi West 12.7 mph 18.4 mph N/A   Clear
4:53 PM 96.1 °F 30.9 °F 10% 29.72 in 10.0 mi WNW 17.3 mph 21.9 mph N/A   Clear
5:53 PM 95.0 °F 33.1 °F 11% 29.71 in 10.0 mi NW 12.7 mph 19.6 mph N/A   Clear
6:53 PM 93.9 °F 35.1 °F 13% 29.71 in 10.0 mi WNW 12.7 mph - N/A   Clear
7:53 PM 90.0 °F 34.0 °F 14% 29.71 in 10.0 mi WNW 6.9 mph - N/A   Clear
8:53 PM 81.0 °F 34.0 °F 18% 29.72 in 10.0 mi West 12.7 mph - N/A   Clear
9:53 PM 80.1 °F 44.1 °F 28% 29.73 in 10.0 mi West 15.0 mph - N/A   Clear
10:53 PM 80.1 °F 45.0 °F 29% 29.74 in 10.0 mi WSW 6.9 mph - N/A   Clear
11:53 PM 77.0 °F 42.1 °F 29% 29.75 in 10.0 mi Calm Calm - N/A   Clear